Location: Holcomb Observatory
(44.4922°N, 73.1654°W)
Time: 02:53:38
(UTC-04:00)

Daily predictions for brighter satellites

Satellite Brightness Start Highest point End
(mag) Time Altitude Azimuth Time Altitude Azimuth Time Altitude Azimuth
Lacrosse 4 Rocket 2.3 00:03:57 10° NNW 00:08:12 45° NE 00:09:37 34° ESE
Cosmos 2221 Rocket 3.6 00:05:45 10° N 00:10:21 85° W 00:11:13 58° S
Landsat 5 3.9 00:14:14 48° ESE 00:15:09 59° ENE 00:19:37 10° N
Cosmos 2227 Rocket 2.3 00:12:57 30° SW 00:15:50 71° WNW 00:21:31 10° NNE
CZ-4B R/B 1.6 00:17:32 67° ENE 00:17:32 67° ENE 00:20:57 10° N
Cosmos 2333 Rocket 2.8 00:12:10 10° NW 00:17:36 44° WSW 00:19:13 35° SSW
Cosmos 1703 Rocket 3.6 00:14:28 10° NNW 00:18:47 64° W 00:19:26 55° SW
Cosmos 1626 3.9 00:19:13 21° WSW 00:20:22 24° WNW 00:23:31 10° NNW
H-2A R/B 2.4 00:16:18 10° NNE 00:20:27 73° ESE 00:20:52 66° SSE
Cosmos 1125 Rocket 3.4 00:19:00 49° S 00:20:28 78° ESE 00:25:49 10° NNE
Cosmos 2181 Rocket 4.2 00:14:16 10° NNW 00:20:35 68° W 00:23:08 38° SSW
Cosmos 1048 Rocket 4.0 00:16:03 10° NNW 00:21:26 85° ENE 00:23:00 48° SSE
Aureole 2 Rocket 4.0 00:22:49 10° N 00:25:20 24° ENE 00:25:20 24° ENE
SL-16 R/B 2.1 00:20:04 10° NNW 00:25:47 88° ENE 00:27:37 45° SSE
Okean 1-7 2.8 00:24:09 10° N 00:28:26 81° W 00:28:55 69° SSW
USA 234 4.2 00:23:03 10° E 00:29:11 46° NNE 00:35:22 10° NW
Meteor 1-26 Rocket 4.2 00:27:02 10° NNW 00:32:38 78° W 00:34:18 47° S
NOSS 2-3 (C) 4.4 00:34:09 43° SE 00:34:33 44° ESE 00:39:53 10° NE
Cosmos 2184 Rocket 4.0 00:33:12 43° SSE 00:35:21 74° E 00:41:33 10° NNE
COSMOS 2455 2.8 00:30:27 10° NNW 00:36:30 79° WSW 00:38:28 45° SSE
Cosmos 1689 Rocket 2.8 00:37:09 57° NW 00:37:09 57° NW 00:39:58 10° NNW
CZ-4C R/B 4.0 00:40:01 36° W 00:40:01 36° W 00:42:57 10° NNW
SeaSat 1 3.7 00:41:22 25° WSW 00:41:56 25° WSW 00:46:00 10° NW
FALCON 9 R/B 3.5 00:32:20 10° W 00:42:43 32° SSW 00:42:43 32° SSW
Cosmos 2297 Rocket 2.5 00:41:00 31° SW 00:43:41 61° WNW 00:49:19 10° NNE
MOS 1-B Rocket 3.8 00:50:57 41° SSE 00:53:04 79° ENE 00:58:41 10° NNW
Cosmos 2219 Rocket 4.0 00:49:48 10° WNW 00:53:14 17° W 00:54:24 16° WSW
Cosmos 1900 4.4 00:50:34 10° NW 00:55:26 55° WSW 00:55:56 52° SW
NOSS 2-3 (D) 4.0 00:54:42 54° SSE 00:55:32 62° ESE 01:01:09 10° NE
Helios 1A Rocket 2.8 00:52:26 10° NNE 00:56:37 85° WNW 00:57:01 72° SSW
CZ-2C R/B 3.8 00:55:30 31° SE 00:58:03 53° ENE 01:03:35 10° N
Cosmos 1603 3.9 00:53:24 10° NNW 00:59:03 66° ENE 01:01:32 34° SE
SL-08 ROCKET BODY 4.4 00:57:05 43° SSW 00:59:17 84° W 01:05:31 10° N
Cosmos 44 Rocket 3.6 00:58:53 51° SSE 00:59:35 55° ESE 01:04:43 10° NE
CZ-2C R/B 2.7 00:54:23 10° NNE 00:59:37 63° ESE 01:00:49 48° SSE
Cosmos 921 Rocket 4.2 01:02:31 28° E 01:02:35 28° E 01:06:11 10° NE
Meteor 1-10 Rocket 4.4 00:56:59 10° N 01:02:55 74° ENE 01:05:04 41° SSE
Cosmos 372 Rocket 4.0 01:03:04 47° SW 01:04:35 75° WNW 01:09:52 10° NNE
Cosmos 1606 3.9 01:02:14 10° N 01:05:45 32° ENE 01:06:18 31° E
Sich 1 Rocket 4.1 01:05:36 43° ESE 01:06:13 46° E 01:10:32 10° NNE
BREEZE-M DEB (TANK) 2.3 00:59:48 10° WNW 01:06:53 88° NE 01:07:21 65° ESE
Meteor 2-3 Rocket 3.9 01:05:45 41° SW 01:07:43 66° WNW 01:13:27 10° N
ERBS 2.9 01:09:15 52° NW 01:09:25 53° NW 01:12:51 10° NE
Cosmos 158 Rocket 4.0 01:04:35 10° NNW 01:09:54 71° WSW 01:11:02 53° S
Meteor 2-10 Rocket 3.6 01:04:47 10° NNW 01:10:18 81° W 01:11:57 48° S
ASTEX 1 3.9 01:05:40 10° N 01:10:24 50° WNW 01:11:38 40° WSW
Cosmos 2084 Rocket 4.3 01:16:49 33° E 01:16:49 33° E 01:19:38 10° NE
Cosmos 2251 Rocket 3.4 01:12:38 10° NNW 01:18:00 80° WSW 01:19:22 51° S
Cosmos 2237 Rocket 4.0 01:15:26 10° WNW 01:18:46 16° W 01:19:39 16° WSW
PSLV R/B 4.1 01:18:20 53° ESE 01:18:58 61° ENE 01:23:00 10° N
ALOS 2 4.3 01:23:07 20° W 01:23:23 21° W 01:26:41 10° NW
ATLAS 2AS CENTAUR R/B 3.6 01:16:57 14° WSW 01:23:34 55° NW 01:31:34 10° NNE
Cosmos 1238 Rocket 3.0 01:19:37 10° N 01:24:02 60° E 01:24:29 55° ESE
Cosmos 1892 3.0 01:25:17 53° W 01:25:23 53° W 01:29:07 10° N
Cosmos 1782 2.7 01:24:52 10° NNW 01:28:50 74° W 01:28:58 73° WSW
Cosmos 1733 Rocket 3.3 01:29:42 50° WSW 01:30:26 58° W 01:34:51 10° N
Coronas F rocket 3.1 01:35:40 30° NNW 01:35:40 30° NNW 01:37:22 10° N
BREEZE-M DEB (TANK) 4.1 01:17:25 10° SW 01:37:08 79° SSE 01:41:53 10° ENE
Cosmos 1340 Rocket 3.4 01:37:51 42° W 01:38:12 43° WNW 01:41:59 10° N
Nadezhda 3 Rocket 4.1 01:34:51 10° NNW 01:40:58 64° W 01:43:13 40° SSW
Cosmos 1378 Rocket 3.5 01:38:58 10° N 01:43:23 84° E 01:44:13 58° SSE
Lacrosse 4 Rocket 3.2 01:43:20 10° WNW 01:45:57 20° W 01:45:57 20° W
CZ-4C R/B 3.0 01:39:59 10° NW 01:47:01 75° NE 01:54:46 10° SE
USA 238 DEB 3.7 01:40:12 10° NW 01:47:08 63° WSW 01:50:17 34° S
USA 238 3.7 01:40:18 10° NW 01:47:14 64° WSW 01:50:25 33° S
ATLAS 3B R/B 3.5 01:41:28 10° NW 01:47:18 30° WSW 01:48:24 29° SW
Okean 2 Rocket 3.6 01:49:33 41° SE 01:50:42 53° E 01:55:07 10° NNE
Okean 3 3.4 01:50:17 10° N 01:54:36 84° E 01:55:32 54° SSE
Cosmos 1825 2.0 01:58:09 70° SSE 01:58:31 81° E 02:02:20 10° N
ERS-2 4.2 01:58:12 10° NE 02:00:49 18° E 02:01:52 16° ESE
Cosmos 1356 Rocket 4.3 02:00:18 33° W 02:00:55 35° WNW 02:04:41 10° N
Meteor 1-27 Rocket 3.9 01:55:46 10° NNW 02:01:36 63° W 02:03:41 39° SSW
Cosmos 1782 Rocket 3.4 02:02:20 54° S 02:03:18 85° E 02:07:43 10° N
SL-16 R/B 4.1 02:06:20 10° WNW 02:09:03 14° W 02:09:30 14° WSW
Cosmos 2263 Rocket 2.6 02:08:18 33° SSE 02:10:32 52° ESE 02:16:03 10° NE
Cosmos 1862 3.5 02:10:02 51° WSW 02:10:39 58° W 02:14:37 10° N
USA 234 3.1 02:05:28 10° SE 02:11:58 73° SW 02:18:32 10° NW
PSLV R/B 3.5 02:08:06 10° NNE 02:12:20 74° E 02:13:25 48° S
Cosmos 1408 2.6 02:11:54 60° SW 02:12:21 68° W 02:16:08 10° N
Iridium 4 Rocket 4.0 02:08:52 10° N 02:13:14 47° E 02:15:45 25° SE
Cosmos 1184 Rocket 3.3 02:18:28 45° SE 02:18:55 49° E 02:22:12 10° NNE
Cosmos 44 3.6 02:17:14 36° SW 02:19:31 77° NW 02:25:01 10° NNE
JB-3 4.3 02:16:45 10° NNE 02:20:36 73° E 02:21:29 50° S
NOSS 3-2 (C) 4.0 02:13:29 10° NW 02:20:58 85° NE 02:29:02 10° SE
Cosmos 1975 Rocket 3.3 02:20:50 10° NNW 02:25:08 52° W 02:26:06 42° SW
CENTAUR R/B 4.4 02:19:16 10° NNW 02:26:19 39° NE 02:33:53 10° ESE
Abrixas rocket 4.5 02:28:06 16° ESE 02:28:06 16° ESE 02:29:29 10° E
USA 161 4.4 02:26:09 10° ESE 02:27:47 14° ENE 02:29:27 10° NNE
Cosmos 1607 4.2 02:23:34 10° NW 02:29:24 46° WSW 02:31:45 31° SSW
Cosmos 1943 3.4 02:31:01 10° NW 02:36:31 51° WSW 02:38:54 31° SSW
Cosmos 1536 Rocket 3.8 02:32:37 10° N 02:36:58 67° E 02:39:23 26° SSE
SL-16 R/B 4.1 02:32:22 10° SE 02:37:52 34° ENE 02:43:22 10° N
CZ-2C R/B 4.5 02:35:44 10° NNW 02:39:24 19° WNW 02:42:21 12° W
Cosmos 921 Rocket 4.4 02:39:19 21° W 02:40:51 26° WNW 02:44:25 10° N
NOSS 3-4 (A) 3.5 02:40:58 28° SSW 02:44:34 87° SE 02:51:13 10° NE
NOSS 3-4 (C) 3.5 02:41:04 28° SSW 02:44:39 87° SE 02:51:18 10° NE
Cosmos 1371 Rocket 4.1 02:42:07 31° S 02:44:46 79° ESE 02:50:10 10° NNE
IRS-P3 4.1 02:40:44 10° NNE 02:46:07 88° WNW 02:48:59 29° SSW
Cosmos 2056 Rocket 3.8 02:43:31 27° S 02:46:21 60° ESE 02:51:32 10° NNE
NOSS 3-2 (A) 4.0 02:39:13 10° NW 02:46:35 62° WSW 02:54:28 10° SSE
Landsat 4 4.1 02:47:13 40° SW 02:47:53 44° W 02:51:32 10° NNW
Cosmos 2151 Rocket 3.5 02:46:53 34° S 02:48:45 86° W 02:53:15 10° N
Elektron 3 4.3 02:46:14 10° NW 02:49:14 81° NE 02:54:14 10° SE
Cosmos 407 Rocket 3.9 02:52:20 10° NNW 02:57:27 64° ENE 03:02:35 10° SSE
SL-24 DEB 4.2 02:53:12 10° N 02:57:51 85° E 03:00:32 25° S
SL-08 R/B 3.4 02:56:47 25° S 02:59:40 67° WSW 03:04:35 10° NNW
Cosmos 909 Rocket 4.3 02:56:26 25° SSW 03:00:25 73° ESE 03:07:47 10° NE
IRAS Rocket 4.3 02:59:05 10° NNE 03:04:34 71° WNW 03:07:57 24° SSW
Resurs 1-4 Rocket 3.6 03:00:17 10° NNE 03:05:01 31° E 03:09:41 10° SSE
Okean 1 Rocket 3.6 03:05:06 18° SSE 03:08:09 55° E 03:12:31 10° NNE
SL-27 R/B 3.2 03:07:12 10° N 03:10:47 54° ENE 03:14:22 10° SSE
Cosmos 1867 3.7 03:05:33 10° NW 03:10:53 53° WSW 03:15:58 11° SSE
GP-B 3.1 03:07:55 10° N 03:12:23 87° W 03:15:17 22° S
Cosmos 1242 Rocket 3.2 03:10:08 10° NNW 03:13:21 35° W 03:14:10 30° SW
EO 1 Del DPAF 4.5 03:09:41 10° SE 03:13:21 42° ENE 03:17:04 10° N
Okean 1 3.3 03:10:12 10° N 03:14:12 84° E 03:17:11 17° S
BREEZE-M DEB (TANK) 4.3 03:07:34 10° WNW 03:14:37 30° SW 03:16:13 23° SSW
Meteor 1-20 Rocket 4.3 03:11:56 20° S 03:16:11 88° E 03:22:01 10° N
RESURS DK-1 2.5 03:15:39 27° SW 03:17:50 66° WNW 03:21:59 10° NNE
AQUA 4.0 03:15:13 10° N 03:19:54 59° WNW 03:22:50 22° SW
NPP 4.0 03:17:09 10° N 03:22:22 52° WNW 03:25:55 20° SW
UNK 4.4 03:18:10 10° SSE 03:22:39 55° ENE 03:27:12 10° N
ATLAS 2A CENTAUR R/B 4.1 03:19:13 19° SSW 03:23:36 28° SSE 03:45:48 10° ESE
Cosmos 1812 2.8 03:20:53 10° NNW 03:24:45 62° W 03:27:13 21° S
Tiangong 1 1.4 03:24:45 30° WSW 03:25:38 38° SSW 03:28:30 10° SE
CBERS 1 LM4 rocket 4.4 03:20:48 10° N 03:25:48 71° WNW 03:29:09 20° SSW
Cosmos 1633 4.5 03:28:00 10° SSE 03:31:03 26° E 03:34:06 10° NNE
Cosmos 1954 Rocket 4.2 03:25:54 10° NNW 03:31:05 73° ENE 03:36:15 10° SSE
Cosmos 1624 Rocket 4.4 03:28:03 20° SW 03:31:30 52° WNW 03:36:38 10° NNE
ERS-2 3.2 03:31:21 10° N 03:34:42 33° WNW 03:36:43 19° WSW
CZ-4C R/B 3.8 03:29:17 10° WNW 03:35:13 28° WSW 03:40:36 13° SSW
Cosmos 1535 Rocket 4.5 03:30:54 15° SSW 03:36:04 78° W 03:42:21 10° N
ADEOS 3.7 03:31:03 10° N 03:36:14 65° WNW 03:40:14 17° SSW
Cosmos 1809 Rocket 4.5 03:41:30 14° SSW 03:46:52 72° W 03:53:02 10° N
Cosmos 1025 Rocket 3.2 03:42:47 10° N 03:47:04 72° E 03:51:22 10° SSE
ARIANE 5 R/B 2.4 03:43:56 10° NNE 03:48:57 81° WNW 03:53:31 12° SSW
CZ-2D R/B 2.3 03:44:37 10° NNE 03:50:04 76° ESE 03:55:32 10° S
Cosmos 1844 4.2 03:45:40 10° S 03:51:11 56° ESE 03:56:48 10° NNE
COSMOS 2406 3.5 03:46:21 10° NW 03:51:55 50° WSW 03:57:24 10° S
Cosmos 1452 Rocket 3.5 03:48:08 14° SSW 03:52:39 84° WNW 03:57:56 10° NNE
Cosmos 1844 Rocket 2.8 03:48:04 13° SSW 03:53:12 78° ESE 03:58:53 10° NNE
COSMOS 2487 3.6 03:49:47 10° N 03:53:20 48° ENE 03:56:50 10° SE
Cosmos 2263 Rocket 3.6 03:50:00 10° WSW 03:54:45 28° NW 03:59:38 10° N
USA 234 4.4 03:51:16 10° SSW 03:55:43 19° WSW 04:00:12 10° WNW
OTV 4 2.1 03:57:04 16° SSW 03:57:28 17° SSW 03:59:28 10° SSE
USA 161 2.9 03:56:54 17° SW 03:58:00 22° W 04:00:19 10° NW
Cosmos 1544 Rocket 4.2 03:57:06 10° S 04:01:26 56° E 04:05:46 10° NNE
Abrixas rocket 2.2 04:01:03 13° WSW 04:03:57 86° SSE 04:07:19 10° ENE
Meteor 2-16 Rocket 4.5 03:58:19 10° SSW 04:04:28 78° W 04:10:40 10° N
USA 129 2.6 04:02:59 10° SSE 04:05:04 49° ENE 04:07:09 10° N
Cosmos 1420 Rocket 4.3 04:01:35 10° S 04:06:51 69° ESE 04:12:09 10° NNE
Cosmos 2278 Rocket 2.9 04:01:32 10° S 04:06:58 51° ESE 04:12:28 10° NE
MTI 3.8 04:05:08 10° S 04:08:25 67° WSW 04:11:44 10° NNW
Cosmos 1602 3.9 04:05:52 11° SSW 04:09:30 57° W 04:13:19 10° N
Cosmos 1536 2.8 04:07:42 10° SSW 04:11:47 78° W 04:15:53 10° N
Cosmos 1023 Rocket 4.4 04:11:31 10° NNW 04:16:36 69° WSW 04:21:38 10° S
CENTAUR R/B 3.1 04:09:52 10° NW 04:17:37 69° WSW 04:25:50 10° SSE
Meteor 2-4 Rocket 3.6 04:13:20 10° NNW 04:18:47 79° W 04:24:07 10° S
CZ-4B R/B 4.0 04:14:19 10° NNE 04:19:53 54° E 04:25:25 10° S
Cosmos 1892 Rocket 3.5 04:16:03 10° NNW 04:20:26 74° W 04:24:45 10° S
ATLAS 5 CENTAUR R/B 3.0 04:15:21 10° NNW 04:21:13 62° NE 04:27:30 10° SE
SL-16 R/B 2.9 04:15:25 10° S 04:21:20 44° W 04:27:16 10° NNW
CZ-2C R/B 3.9 04:17:15 10° SSE 04:21:59 90° ENE 04:26:48 10° NNW
Cosmos 1934 Rocket 4.5 04:16:30 10° SSW 04:22:28 46° WNW 04:28:24 10° N
Cosmos 2082 Rocket 3.8 04:18:09 10° NNW 04:23:35 42° ENE 04:28:58 10° SE
Gbstr 26 Del rocket 3.0 04:20:48 10° SW 04:24:35 53° SE 04:28:14 10° ENE
UNKNOWN OBJECT B 3.1 04:21:24 10° N 04:25:26 60° WNW 04:29:28 10° SSW
PSLV R/B 4.2 04:22:36 10° NNE 04:26:48 75° ESE 04:30:55 10° S
Cosmos 1741 Rocket 4.0 04:29:12 10° NNW 04:34:28 66° WSW 04:39:39 10° S
Cosmos 1850 Rocket 4.0 04:29:22 10° NNW 04:34:32 63° WSW 04:39:43 10° S
Cosmos 1140 Rocket 3.8 04:30:41 10° NNW 04:35:36 46° WSW 04:40:28 10° S
